Location: Lac Lasalle
(46.0398°N, 74.1576°W)
Time: 17:44:56
(UTC-05:00)

SEEDS - Pass Details

Date: 20 December 2019
Orbit: 586 x 603 km, 97.5° (Epoch: 21 January)

Event Time Altitude Azimuth Distance (km) Brightness Sun altitude
Rises 17:47:31 0° 199° (SSW) 2,807 ? -15.5°
Reaches altitude 10° 17:50:01 10° 214° (SSW) 1,914 ? -15.9°
Maximum altitude 17:53:20 23° 267° (W) 1,283 ? -16.5°
Drops below altitude 10° 17:56:41 10° 320° (NW) 1,935 ? -17.0°
Sets 17:59:15 0° 335° (NNW) 2,846 ? -17.5°
